Regional Weather Roundup
Issued by NWS Columbia, SC

Home | Current Version | Previous Version | Text Only | Print | Product List | Glossary On
Versions: 1 2 3 4 5 6 7 8 9 10 11 12 13 14 15 16 17 18 19 20 21 22 23 24 25 26 27 28 29 30 31 32 33 34 35 36 37 38 39 40 41 42 43 44 45 46 47 48 49 50
253
ASUS42 KCAE 210510
RWRCAE
REGIONAL WEATHER ROUNDUP
NATIONAL WEATHER SERVICE COLUMBIA SC
1200 AM EST SAT JAN 21 2017

NOTE: "FAIR" INDICATES FEW OR NO CLOUDS BELOW 12,000 FEET WITH NO
SIGNIFICANT WEATHER AND/OR OBSTRUCTIONS TO VISIBILITY.

NOT ALL STATIONS ARE QUALITY CONTROLLED BY THE NATIONAL
WEATHER SERVICE. USE DATA WITH CAUTION...ESPECIALLY
DEWPOINT OBSERVATIONS.

SCZ001>056-GAZ040-063>065-077-210600-
...UPSTATE SOUTH CAROLINA...

CITY           SKY/WX    TMP DP  RH WIND       PRES   REMARKS
ANDERSON       CLEAR     54  51  90 CALM      29.89S
LIBERTY        PTCLDY    51  50  97 CALM      29.89S
SPARTANBURG    FOG       54  52  94 NE3       29.90F VSB 1/4
CLEMSON        CLEAR     60  51  72 CALM      29.89F
GREENVILLE     CLOUDY    56  54  93 NE5       29.90F FOG
GREENWOOD      PTCLDY    57  53  86 SW6       29.91R
GREER          FOG       53  52  96 NE5       29.89F VSB 1/4
ROCK HILL      FOG       52  51  97 NE3       29.90S VSB 1
CHESTER        PTCLDY    54  54 100 NE3       29.91S FOG
LAURENS        PTCLDY    52  50  93 N3        29.90S


...CENTRAL SOUTH CAROLINA...

CITY           SKY/WX    TMP DP  RH WIND       PRES   REMARKS
COLUMBIA APT   CLEAR     59  55  87 CALM      29.89S
COLUMBIA OWENS CLEAR     57  54  89 CALM      29.90S
MCENTIRE ANGB  CLEAR     54  54 100 CALM      29.89F
ORANGEBURG     MOCLDY    60  59  96 SW5       29.90S
SUMTER SHAW    CLEAR     58  56  95 S6        29.87F
NEWBERRY       CLEAR     55  54  94 SW3       29.92S
AIKEN          FAIR      55  55 100 CALM      29.93F
BARNWELL       FAIR      61  59  94 CALM      29.90S
MANNING        FAIR      55  54  94 CALM      29.91S
CAMDEN         FAIR      59  57  94 CALM      29.89F
LANCASTER      CLEAR     55  55 100 CALM      29.90S FOG
WINNSBORO      CLEAR     59  55  88 S5        29.89F


...EASTERN AND COASTAL SOUTH CAROLINA...

CITY           SKY/WX    TMP DP  RH WIND       PRES   REMARKS
MYRTLE BEACH   PTCLDY    61  57  88 SW3       29.93F
N MYRTLE BCH   PTCLDY    55  55 100 CALM      29.90F FOG
CONWAY         FAIR      54  52  94 CALM      29.90F
MARION         FAIR      55  54  94 S3        29.90F
HARTSVILLE     FAIR      55  55 100 CALM      29.90R
FLORENCE       PTCLDY    60  58  92 SW5       29.90S
DARLINGTON     FOG       54  53  97 CALM      29.90S VSB 1/4
CHARLESTON APT CLOUDY    61  59  93 S7        29.92S
MOUNT PLEASANT FAIR      63  63 100 S5        29.92F
WALTERBORO     CLOUDY    61  61 100 S3        29.92F
BEAUFORT       CLOUDY    66  62  87 S7        29.92F


...EASTERN GEORGIA...

CITY           SKY/WX    TMP DP  RH WIND       PRES   REMARKS
AUGUSTA BUSH F PTCLDY    60  57  89 CALM      29.90R
AUGUSTA DANIEL PTCLDY    65  57  75 CALM      29.90S
THOMSON        PTCLDY    59  59 100 CALM      29.94S
WASHINGTON     FAIR      63  61  94 SW3       29.89F
CLAXTON        CLOUDY   N/A N/A N/A CALM      29.92S
SYLVANIA       HVY RAIN N/A N/A N/A SW7       29.93R
STATESBORO     CLOUDY    65  32  28 CALM      29.92S
SAVANNAH       RAIN      66  62  87 S5        29.92F


...SOUTHERN NORTH CAROLINA...

CITY           SKY/WX    TMP DP  RH WIND       PRES   REMARKS
CHARLOTTE      FOG       53  52  96 NE3       29.91S VSB 1/4
MONROE         FOG       53  52  96 NE6       29.90R VSB 1/4
ROCKINGHAM     CLEAR     56  56 100 E5        29.89F FOG
RUTHERFORDTON  CLOUDY    53  53 100 CALM      29.92F FOG
ASHEVILLE      PTCLDY    47  44  90 CALM      29.91F

$$




USA.gov is the U.S. government's official web portal to all federal, state and local government web resources and services.